This is the latest recevied weather packets stored in our database for station/object WP3OF-2. If no packets are shown the sender has not sent any weather packets the latest 10 day(s).
| Time | Temp. | Humidity | Pressure | Rain* | Wind** | Luminosity | Snow |
|---|---|---|---|---|---|---|---|
| 1777588901 | 20° C | 99% | 1022.6 hPa | 3.05 mm | - | 0 W/m² | - |
| 1777588596 | 20° C | 99% | 1022.3 hPa | 7.87 mm | - | 0 W/m² | - |
| 1777588291 | 20° C | 99% | 1022.3 hPa | 7.87 mm | - | 0 W/m² | - |
| 1777587987 | 20° C | 99% | 1022.6 hPa | 6.1 mm | - | 0 W/m² | - |
| 1777587683 | 20° C | 99% | 1022.3 hPa | 4.83 mm | - | 0 W/m² | - |
| 1777587377 | 20° C | 99% | 1022.6 hPa | 3.05 mm | - | 0 W/m² | - |
| 1777587074 | 20° C | 99% | 1022.3 hPa | 3.05 mm | - | 2 W/m² | - |
| 1777586770 | 20° C | 99% | 1022.3 hPa | 1.78 mm | - | 1 W/m² | - |
| 1777586465 | 20° C | 99% | 1021.8 hPa | 1.27 mm | - | 3 W/m² | - |
| 1777586160 | 20° C | 99% | 1021.8 hPa | 3.05 mm | - | 1 W/m² | - |
| 1777585859 | 20° C | 99% | 1021.8 hPa | 1.78 mm | - | 4 W/m² | - |
| 1777585558 | 20° C | 99% | 1021.8 hPa | 0 mm | - | 4 W/m² | - |
| 1777585254 | 20° C | 99% | 1021.8 hPa | 0 mm | - | 10 W/m² | - |
| 1777584949 | 20° C | 99% | 1021.8 hPa | 0 mm | - | 8 W/m² | - |
| 1777584647 | 20° C | 99% | 1021.8 hPa | 0 mm | - | 3 W/m² | - |
| 1777584343 | 20° C | 99% | 1021.8 hPa | 0 mm | - | 3 W/m² | - |
| 1777584039 | 20° C | 99% | 1021.8 hPa | 0 mm | - | 6 W/m² | - |
| 1777583734 | 20° C | 99% | 1021.8 hPa | 1.27 mm | - | 14 W/m² | - |
| 1777583433 | 20° C | 99% | 1021.8 hPa | 1.27 mm | - | 14 W/m² | - |
| 1777583133 | 20° C | 99% | 1021.5 hPa | 1.78 mm | - | 22 W/m² | - |
| 1777582829 | 20° C | 99% | 1021.5 hPa | 1.78 mm | - | 49 W/m² | - |
| 1777582526 | 20° C | 99% | 1021.5 hPa | 0 mm | - | 47 W/m² | - |
| 1777582221 | 20.56° C | 99% | 1021.8 hPa | 1.27 mm | - | 38 W/m² | - |
| 1777581919 | 20.56° C | 99% | 1021.8 hPa | 4.32 mm | - | 41 W/m² | - |
| 1777581614 | 20.56° C | 99% | 1021.8 hPa | 6.6 mm | - | 28 W/m² | - |
* Rain latest hour (hover to see other rain measurements)
** Current wind speed in m/s (hover to see current wind gust speed)